Darstellungsparameter: Aktuell verwendete Einstellungen:
Skalierung der Graphiken ... ?
xyx+y,   Skalierungsfaktor:      Skalierung: Modus: x, Faktor: 1
Darstellungszeitraum ... ?
Vom - - bis: - -   Zeitraum: 16.02.2014 - 16.02.2014
Min/Max/Avg-Anzeige ... ?
Zeige MMA aktuell
Zeige MMA Monat
Zeige MMA alles
Zeige --A aktuell
Zeige --A Monat
Zeige --A alles
Keine MMA-Anzeige
MMA:
Keine MMA-Graphiken
MMA-Basis: 16.02.2014 - 16.02.2014
Quicknavigation für Darstellung... ?
Tage:      1T, 2T, 3T, 5T -1T -2T -3T -5T +1T +2T +3T +5T
Wochen: 1W, 2W, 3W -1W -2W -3W +1W +2W +3W
Monate: 1M, 3M, 6M -1M -3M -6M +1M +3M +6M
Jahre:    1J, 3J, 5J, 10J -1J -3J -5J -10J +1J +3J +5J +10J
Nutze für die Darstellung ... ?
Originaldaten oder Mittelwerte auf ...
Stundenbasis Tagesbasis Wochenbasis
Monatsbasis Jahresbasis      Datenbasis: Original-Daten
Darstellen als:
Statistik (Auto) Statistik J:M      Darstellung:
Zur Graphik,    zurück zur Übersicht aller Sensoren.
 
Tabellarische Datenbersicht: ?
 
Sensor: Nr:Datum:Temp:Feuchte:Taupunkt:
Aussen-T/F 1 16-02-2014 00:00:00 8.7 C 79 % 5.27 C
2 16-02-2014 00:05:00 8.5 C 79 % 5.07 C
3 16-02-2014 00:10:00 8.4 C 80 % 5.16 C
4 16-02-2014 00:15:00 8.4 C 80 % 5.16 C
5 16-02-2014 00:20:00 8.3 C 80 % 5.06 C
6 16-02-2014 00:25:00 8.3 C 80 % 5.06 C
7 16-02-2014 00:30:00 8.3 C 80 % 5.06 C
8 16-02-2014 00:35:00 8.4 C 80 % 5.16 C
9 16-02-2014 00:40:00 8.4 C 80 % 5.16 C
10 16-02-2014 00:45:00 8.4 C 80 % 5.16 C
11 16-02-2014 00:50:00 8.4 C 79 % 4.98 C
12 16-02-2014 00:55:00 8.4 C 79 % 4.98 C
13 16-02-2014 01:00:00 8.6 C 78 % 4.99 C
14 16-02-2014 01:05:00 8.6 C 78 % 4.99 C
15 16-02-2014 01:10:00 8.6 C 77 % 4.8 C
16 16-02-2014 01:15:00 8.6 C 77 % 4.8 C
17 16-02-2014 01:20:00 8.5 C 77 % 4.71 C
18 16-02-2014 01:25:00 8.4 C 77 % 4.61 C
19 16-02-2014 01:30:00 8.4 C 78 % 4.79 C
20 16-02-2014 01:35:00 8.4 C 78 % 4.79 C
21 16-02-2014 01:40:00 8.4 C 78 % 4.79 C
22 16-02-2014 01:45:00 8.3 C 79 % 4.88 C
23 16-02-2014 01:50:00 8.3 C 79 % 4.88 C
24 16-02-2014 01:55:00 8.3 C 79 % 4.88 C
25 16-02-2014 02:00:00 8.4 C 78 % 4.79 C
Sensor: Nr:Datum:Temp:Feuchte:Taupunkt:
Aussen-T/F 26 16-02-2014 02:05:00 8.4 C 78 % 4.79 C
27 16-02-2014 02:10:00 8.4 C 78 % 4.79 C
28 16-02-2014 02:15:00 8.3 C 78 % 4.7 C
29 16-02-2014 02:20:00 8.3 C 78 % 4.7 C
30 16-02-2014 02:25:00 8.3 C 78 % 4.7 C
31 16-02-2014 02:30:00 8.2 C 78 % 4.6 C
32 16-02-2014 02:35:00 8.2 C 78 % 4.6 C
33 16-02-2014 02:40:00 8.2 C 79 % 4.78 C
34 16-02-2014 02:45:00 8.2 C 78 % 4.6 C
35 16-02-2014 02:50:00 8.2 C 78 % 4.6 C
36 16-02-2014 02:55:00 8.2 C 78 % 4.6 C
37 16-02-2014 03:00:00 8.2 C 77 % 4.42 C
38 16-02-2014 03:05:00 8.2 C 77 % 4.42 C
39 16-02-2014 03:10:00 7.9 C 78 % 4.31 C
40 16-02-2014 03:15:00 7.9 C 78 % 4.31 C
41 16-02-2014 03:20:00 7.8 C 78 % 4.21 C
42 16-02-2014 03:25:00 7.7 C 79 % 4.3 C
43 16-02-2014 03:30:00 7.7 C 79 % 4.3 C
44 16-02-2014 03:35:00 7.8 C 78 % 4.21 C
45 16-02-2014 03:40:00 7.9 C 78 % 4.31 C
46 16-02-2014 03:45:00 8.1 C 77 % 4.32 C
47 16-02-2014 03:50:00 8.2 C 77 % 4.42 C
48 16-02-2014 03:55:00 8.1 C 77 % 4.32 C
49 16-02-2014 04:00:00 8.1 C 77 % 4.32 C
50 16-02-2014 04:05:00 8.1 C 76 % 4.13 C
Sensor: Nr:Datum:Temp:Feuchte:Taupunkt:
Aussen-T/F 51 16-02-2014 04:10:00 8.1 C 76 % 4.13 C
52 16-02-2014 04:15:00 8.1 C 75 % 3.94 C
53 16-02-2014 04:20:00 8.2 C 75 % 4.04 C
54 16-02-2014 04:25:00 8.2 C 75 % 4.04 C
55 16-02-2014 04:30:00 8.2 C 75 % 4.04 C
56 16-02-2014 04:35:00 8.1 C 75 % 3.94 C
57 16-02-2014 04:40:00 8.1 C 76 % 4.13 C
58 16-02-2014 04:45:00 8.1 C 75 % 3.94 C
59 16-02-2014 04:50:00 8.1 C 76 % 4.13 C
60 16-02-2014 04:55:00 8.1 C 76 % 4.13 C
61 16-02-2014 05:00:00 7.9 C 77 % 4.12 C
62 16-02-2014 05:05:00 7.8 C 78 % 4.21 C
63 16-02-2014 05:10:00 7.6 C 79 % 4.2 C
64 16-02-2014 05:15:00 7.6 C 79 % 4.2 C
65 16-02-2014 05:20:00 7.8 C 77 % 4.03 C
66 16-02-2014 05:25:00 7.8 C 77 % 4.03 C
67 16-02-2014 05:30:00 7.8 C 77 % 4.03 C
68 16-02-2014 05:35:00 7.8 C 77 % 4.03 C
69 16-02-2014 05:40:00 7.8 C 77 % 4.03 C
70 16-02-2014 05:45:00 7.8 C 77 % 4.03 C
71 16-02-2014 05:50:00 7.8 C 77 % 4.03 C
72 16-02-2014 05:55:00 7.8 C 77 % 4.03 C
73 16-02-2014 06:00:00 7.9 C 77 % 4.12 C
74 16-02-2014 06:05:00 7.8 C 77 % 4.03 C
75 16-02-2014 06:10:00 7.8 C 78 % 4.21 C
Sensor: Nr:Datum:Temp:Feuchte:Taupunkt:
Aussen-T/F 76 16-02-2014 06:15:00 7.7 C 79 % 4.3 C
77 16-02-2014 06:20:00 7.7 C 79 % 4.3 C
78 16-02-2014 06:25:00 7.6 C 79 % 4.2 C
79 16-02-2014 06:30:00 7.6 C 79 % 4.2 C
80 16-02-2014 06:35:00 7.6 C 79 % 4.2 C
81 16-02-2014 06:40:00 7.6 C 79 % 4.2 C
82 16-02-2014 06:45:00 7.6 C 79 % 4.2 C
83 16-02-2014 06:50:00 7.7 C 79 % 4.3 C
84 16-02-2014 06:55:00 7.7 C 79 % 4.3 C
85 16-02-2014 07:00:00 7.7 C 79 % 4.3 C
86 16-02-2014 07:05:00 7.7 C 79 % 4.3 C
87 16-02-2014 07:10:00 7.7 C 79 % 4.3 C
88 16-02-2014 07:15:00 7.7 C 79 % 4.3 C
89 16-02-2014 07:20:00 7.6 C 79 % 4.2 C
90 16-02-2014 07:25:00 7.6 C 79 % 4.2 C
91 16-02-2014 07:30:00 7.6 C 80 % 4.38 C
92 16-02-2014 07:35:00 7.6 C 80 % 4.38 C
93 16-02-2014 07:40:00 7.5 C 81 % 4.46 C
94 16-02-2014 07:45:00 7.4 C 81 % 4.36 C
95 16-02-2014 07:50:00 7.4 C 81 % 4.36 C
96 16-02-2014 07:55:00 7.4 C 81 % 4.36 C
97 16-02-2014 08:00:00 7.4 C 81 % 4.36 C
98 16-02-2014 08:05:00 7.3 C 81 % 4.26 C
99 16-02-2014 08:10:00 7.4 C 81 % 4.36 C
100 16-02-2014 08:15:00 7.4 C 80 % 4.18 C
Sensor: Nr:Datum:Temp:Feuchte:Taupunkt:
Aussen-T/F 101 16-02-2014 08:20:00 7.4 C 80 % 4.18 C
102 16-02-2014 08:25:00 7.4 C 80 % 4.18 C
103 16-02-2014 08:30:00 7.4 C 80 % 4.18 C
104 16-02-2014 08:35:00 7.4 C 80 % 4.18 C
105 16-02-2014 08:40:00 7.3 C 80 % 4.09 C
106 16-02-2014 08:45:00 7.3 C 80 % 4.09 C
107 16-02-2014 08:50:00 7.3 C 81 % 4.26 C
108 16-02-2014 08:55:00 7.3 C 80 % 4.09 C
109 16-02-2014 09:00:00 7.3 C 81 % 4.26 C
110 16-02-2014 09:05:00 7.2 C 83 % 4.51 C
111 16-02-2014 09:10:00 7.2 C 84 % 4.68 C
112 16-02-2014 09:15:00 7.2 C 84 % 4.68 C
113 16-02-2014 09:20:00 7.2 C 84 % 4.68 C
114 16-02-2014 09:25:00 7.4 C 82 % 4.53 C
115 16-02-2014 09:30:00 7.5 C 82 % 4.63 C
116 16-02-2014 09:35:00 7.6 C 81 % 4.55 C
117 16-02-2014 09:40:00 7.7 C 80 % 4.47 C
118 16-02-2014 09:45:00 7.8 C 80 % 4.57 C
119 16-02-2014 09:50:00 7.9 C 79 % 4.49 C
120 16-02-2014 09:55:00 7.9 C 79 % 4.49 C
121 16-02-2014 10:00:00 7.9 C 79 % 4.49 C
122 16-02-2014 10:05:00 8.1 C 79 % 4.68 C
123 16-02-2014 10:10:00 8.1 C 79 % 4.68 C
124 16-02-2014 10:15:00 8 C 80 % 4.77 C
125 16-02-2014 10:20:00 7.9 C 81 % 4.85 C
Sensor: Nr:Datum:Temp:Feuchte:Taupunkt:
Aussen-T/F 126 16-02-2014 10:25:00 7.9 C 81 % 4.85 C
127 16-02-2014 10:30:00 7.9 C 80 % 4.67 C
128 16-02-2014 10:35:00 8 C 79 % 4.59 C
129 16-02-2014 10:40:00 8 C 79 % 4.59 C
130 16-02-2014 10:45:00 8 C 79 % 4.59 C
131 16-02-2014 10:50:00 8.1 C 79 % 4.68 C
132 16-02-2014 10:55:00 8.2 C 78 % 4.6 C
133 16-02-2014 11:00:00 8.3 C 78 % 4.7 C
134 16-02-2014 11:05:00 8.4 C 77 % 4.61 C
135 16-02-2014 11:10:00 8.4 C 77 % 4.61 C
136 16-02-2014 11:15:00 8.6 C 76 % 4.62 C
137 16-02-2014 11:20:00 8.6 C 77 % 4.8 C
138 16-02-2014 11:25:00 8.7 C 76 % 4.71 C
139 16-02-2014 11:30:00 8.6 C 76 % 4.62 C
140 16-02-2014 11:35:00 8.7 C 77 % 4.9 C
141 16-02-2014 11:40:00 8.7 C 77 % 4.9 C
142 16-02-2014 11:45:00 8.7 C 77 % 4.9 C
143 16-02-2014 11:50:00 8.6 C 77 % 4.8 C
144 16-02-2014 11:55:00 8.5 C 78 % 4.89 C
145 16-02-2014 12:00:00 8.4 C 79 % 4.98 C
146 16-02-2014 12:05:00 8.4 C 79 % 4.98 C
147 16-02-2014 12:10:00 8.5 C 80 % 5.25 C
148 16-02-2014 12:15:00 8.7 C 79 % 5.27 C
149 16-02-2014 12:20:00 8.8 C 77 % 5 C
150 16-02-2014 12:25:00 9 C 77 % 5.19 C
Sensor: Nr:Datum:Temp:Feuchte:Taupunkt:
Aussen-T/F 151 16-02-2014 12:30:00 8.9 C 75 % 4.72 C
152 16-02-2014 12:35:00 8.7 C 79 % 5.27 C
153 16-02-2014 12:40:00 8.3 C 83 % 5.59 C
154 16-02-2014 12:45:00 8 C 85 % 5.64 C
155 16-02-2014 12:50:00 7.9 C 85 % 5.54 C
156 16-02-2014 12:55:00 7.9 C 86 % 5.71 C
157 16-02-2014 13:00:00 8 C 86 % 5.81 C
158 16-02-2014 13:05:00 8.2 C 85 % 5.83 C
159 16-02-2014 13:10:00 8.4 C 82 % 5.51 C
160 16-02-2014 13:15:00 8.6 C 80 % 5.35 C
161 16-02-2014 13:20:00 8.7 C 79 % 5.27 C
162 16-02-2014 13:25:00 8.8 C 78 % 5.18 C
163 16-02-2014 13:30:00 8.9 C 78 % 5.28 C
164 16-02-2014 13:35:00 8.9 C 78 % 5.28 C
165 16-02-2014 13:40:00 8.9 C 78 % 5.28 C
166 16-02-2014 13:45:00 8.9 C 78 % 5.28 C
167 16-02-2014 13:50:00 8.9 C 77 % 5.09 C
168 16-02-2014 13:55:00 9 C 77 % 5.19 C
169 16-02-2014 14:00:00 9.2 C 77 % 5.38 C
170 16-02-2014 14:05:00 9.4 C 75 % 5.2 C
171 16-02-2014 14:10:00 9.4 C 75 % 5.2 C
172 16-02-2014 14:15:00 9.3 C 75 % 5.1 C
173 16-02-2014 14:20:00 9.3 C 75 % 5.1 C
174 16-02-2014 14:25:00 9.3 C 76 % 5.29 C
175 16-02-2014 14:30:00 9.3 C 74 % 4.91 C
Sensor: Nr:Datum:Temp:Feuchte:Taupunkt:
Aussen-T/F 176 16-02-2014 14:35:00 9.1 C 75 % 4.91 C
177 16-02-2014 14:40:00 9 C 75 % 4.81 C
178 16-02-2014 14:45:00 9 C 76 % 5 C
179 16-02-2014 14:50:00 9.1 C 76 % 5.1 C
180 16-02-2014 14:55:00 9.2 C 76 % 5.2 C
181 16-02-2014 15:00:00 9.2 C 75 % 5.01 C
182 16-02-2014 15:05:00 9.2 C 74 % 4.81 C
183 16-02-2014 15:10:00 9.3 C 74 % 4.91 C
184 16-02-2014 15:15:00 9.4 C 73 % 4.81 C
185 16-02-2014 15:20:00 9.4 C 73 % 4.81 C
186 16-02-2014 15:25:00 9.4 C 73 % 4.81 C
187 16-02-2014 15:30:00 9.3 C 72 % 4.52 C
188 16-02-2014 15:35:00 9.3 C 72 % 4.52 C
189 16-02-2014 15:40:00 9.3 C 72 % 4.52 C
190 16-02-2014 15:45:00 9.3 C 73 % 4.72 C
191 16-02-2014 15:50:00 9.4 C 73 % 4.81 C
192 16-02-2014 15:55:00 9.4 C 73 % 4.81 C
193 16-02-2014 16:00:00 9.5 C 73 % 4.91 C
194 16-02-2014 16:05:00 9.6 C 72 % 4.81 C
195 16-02-2014 16:10:00 9.6 C 73 % 5.01 C
196 16-02-2014 16:15:00 9.7 C 72 % 4.9 C
197 16-02-2014 16:20:00 9.7 C 72 % 4.9 C
198 16-02-2014 16:25:00 9.7 C 72 % 4.9 C
199 16-02-2014 16:30:00 9.7 C 72 % 4.9 C
200 16-02-2014 16:35:00 9.7 C 72 % 4.9 C
Sensor: Nr:Datum:Temp:Feuchte:Taupunkt:
Aussen-T/F 201 16-02-2014 16:40:00 9.6 C 72 % 4.81 C
202 16-02-2014 16:45:00 9.6 C 71 % 4.61 C
203 16-02-2014 16:50:00 9.6 C 71 % 4.61 C
204 16-02-2014 16:55:00 9.5 C 71 % 4.51 C
205 16-02-2014 17:00:00 9.4 C 71 % 4.42 C
206 16-02-2014 17:05:00 9.4 C 71 % 4.42 C
207 16-02-2014 17:10:00 9.3 C 70 % 4.12 C
208 16-02-2014 17:15:00 9.3 C 71 % 4.32 C
209 16-02-2014 17:20:00 9.3 C 71 % 4.32 C
210 16-02-2014 17:25:00 9.2 C 70 % 4.02 C
211 16-02-2014 17:30:00 9.1 C 72 % 4.33 C
212 16-02-2014 17:35:00 8.8 C 72 % 4.04 C
213 16-02-2014 17:40:00 8.6 C 75 % 4.43 C
214 16-02-2014 17:45:00 8.2 C 77 % 4.42 C
215 16-02-2014 17:50:00 7.7 C 79 % 4.3 C
216 16-02-2014 17:55:00 7.3 C 80 % 4.09 C
217 16-02-2014 18:00:00 7.1 C 82 % 4.24 C
218 16-02-2014 18:05:00 6.8 C 83 % 4.12 C
219 16-02-2014 18:10:00 6.6 C 83 % 3.92 C
220 16-02-2014 18:15:00 6.4 C 85 % 4.07 C
221 16-02-2014 18:20:00 6.3 C 85 % 3.97 C
222 16-02-2014 18:25:00 6.2 C 85 % 3.87 C
223 16-02-2014 18:30:00 6.1 C 85 % 3.77 C
224 16-02-2014 18:35:00 6.1 C 86 % 3.94 C
225 16-02-2014 18:40:00 5.9 C 86 % 3.74 C
Sensor: Nr:Datum:Temp:Feuchte:Taupunkt:
Aussen-T/F 226 16-02-2014 18:45:00 5.7 C 87 % 3.71 C
227 16-02-2014 18:50:00 5.6 C 87 % 3.61 C
228 16-02-2014 18:55:00 5.5 C 88 % 3.67 C
229 16-02-2014 19:00:00 5.4 C 88 % 3.58 C
230 16-02-2014 19:05:00 5.3 C 89 % 3.64 C
231 16-02-2014 19:10:00 5.2 C 89 % 3.54 C
232 16-02-2014 19:15:00 5.2 C 89 % 3.54 C
233 16-02-2014 19:20:00 5.2 C 89 % 3.54 C
234 16-02-2014 19:25:00 5.4 C 88 % 3.58 C
235 16-02-2014 19:30:00 5.4 C 88 % 3.58 C
236 16-02-2014 19:35:00 5.3 C 88 % 3.48 C
237 16-02-2014 19:40:00 5.2 C 88 % 3.38 C
238 16-02-2014 19:45:00 5.2 C 88 % 3.38 C
239 16-02-2014 19:50:00 5.1 C 88 % 3.28 C
240 16-02-2014 19:55:00 5 C 89 % 3.34 C
241 16-02-2014 20:00:00 4.9 C 89 % 3.24 C
242 16-02-2014 20:05:00 4.8 C 89 % 3.14 C
243 16-02-2014 20:10:00 4.7 C 89 % 3.05 C
244 16-02-2014 20:15:00 4.7 C 90 % 3.2 C
245 16-02-2014 20:20:00 4.7 C 90 % 3.2 C
246 16-02-2014 20:25:00 4.6 C 90 % 3.1 C
247 16-02-2014 20:30:00 4.5 C 90 % 3.01 C
248 16-02-2014 20:35:00 4.4 C 90 % 2.91 C
249 16-02-2014 20:40:00 4.3 C 90 % 2.81 C
250 16-02-2014 20:45:00 4.2 C 91 % 2.87 C
Sensor: Nr:Datum:Temp:Feuchte:Taupunkt:
Aussen-T/F 251 16-02-2014 20:50:00 4.1 C 91 % 2.77 C
252 16-02-2014 20:55:00 4.1 C 91 % 2.77 C
253 16-02-2014 21:00:00 4 C 91 % 2.67 C
254 16-02-2014 21:05:00 3.9 C 92 % 2.72 C
255 16-02-2014 21:10:00 3.9 C 92 % 2.72 C
256 16-02-2014 21:15:00 3.8 C 92 % 2.62 C
257 16-02-2014 21:20:00 3.9 C 92 % 2.72 C
258 16-02-2014 21:25:00 3.9 C 92 % 2.72 C
259 16-02-2014 21:30:00 3.9 C 92 % 2.72 C
260 16-02-2014 21:35:00 3.9 C 92 % 2.72 C
261 16-02-2014 21:40:00 3.8 C 92 % 2.62 C
262 16-02-2014 21:45:00 3.8 C 92 % 2.62 C
263 16-02-2014 21:50:00 3.8 C 92 % 2.62 C
264 16-02-2014 21:55:00 3.8 C 92 % 2.62 C
265 16-02-2014 22:00:00 3.8 C 92 % 2.62 C
266 16-02-2014 22:05:00 3.8 C 92 % 2.62 C
267 16-02-2014 22:10:00 3.8 C 91 % 2.47 C
268 16-02-2014 22:15:00 3.8 C 91 % 2.47 C
269 16-02-2014 22:20:00 3.9 C 90 % 2.41 C
270 16-02-2014 22:25:00 3.8 C 90 % 2.31 C
271 16-02-2014 22:30:00 3.8 C 90 % 2.31 C
272 16-02-2014 22:35:00 3.9 C 90 % 2.41 C
273 16-02-2014 22:40:00 3.8 C 90 % 2.31 C
274 16-02-2014 22:45:00 3.8 C 90 % 2.31 C
275 16-02-2014 22:50:00 3.8 C 90 % 2.31 C
Sensor: Nr:Datum:Temp:Feuchte:Taupunkt:
Aussen-T/F 276 16-02-2014 22:55:00 3.8 C 90 % 2.31 C
277 16-02-2014 23:00:00 3.8 C 90 % 2.31 C
278 16-02-2014 23:05:00 3.7 C 90 % 2.22 C
279 16-02-2014 23:10:00 3.5 C 90 % 2.02 C
280 16-02-2014 23:15:00 3.4 C 91 % 2.07 C
281 16-02-2014 23:20:00 3.3 C 91 % 1.98 C
282 16-02-2014 23:25:00 3.3 C 91 % 1.98 C
283 16-02-2014 23:30:00 3.3 C 91 % 1.98 C
284 16-02-2014 23:35:00 3.3 C 91 % 1.98 C
285 16-02-2014 23:40:00 3.3 C 91 % 1.98 C
286 16-02-2014 23:45:00 3.2 C 91 % 1.88 C
287 16-02-2014 23:50:00 3.1 C 92 % 1.93 C
288 16-02-2014 23:55:00 3 C 92 % 1.83 C

Legende:
   Min
   Max


Maximal/Minimal-Werte vom 16.02.2014 - 16.02.2014

Sensor Min Max Avg
Temp
(Aussen-T/F)
3 °C
16-02-2014  23:55:00
9.7 °C
16-02-2014  16:15:00
7.36 °C
Feuchte
(Aussen-T/F)
70 %
16-02-2014  17:10:00
92 %
16-02-2014  21:05:00
80.57 %
Taupunkt
(Aussen-T/F)
1.83 C
16-02-2014  23:55:00
5.83 C
16-02-2014  13:05:00
4.19 C

Die Daten stammen von einer Davis Vantage Pro 2 Wetter-Station und werden unter Linux mit der Software wview2wettercgi und aufbereitet. Alle Angaben erfolgen ohne Gewähr für ihre Vollständigkeit oder Richtigkeit.
Kontakt: Rainer Krienke krienke@uni-koblenz.de . Meine Webseiten an der Uni Koblenz oder privat.
Version: $Revision: 0.78 $